EHI
0 0 0 0 0 0 0 0 0 0 0 0 0 0 0 0 0 0 0 0 0 2 5 8 8 8 11 12 11 10 9 7 6 7 7 5 5 4 3 3 4 3 3 3 3 3 3 1 0
0 0 0 0 0 0 0 0 0 0 0 0 0 0 0 0 0 0 0 0 0 2 6 8 9 10 11 11 11 11 11 10 7 5 5 5 5 4 3 2 2 2 3 3 3 3 3 2 1
0 0 0 0 0 0 0 0 0 0 0 0 0 0 0 0 0 0 0 0 1 3 6 9 11 13 12 11 10 11 13 11 7 4 3 4 4 3 3 2 1 2 2 3 3 3 3 3 3
0 0 0 0 0 0 0 0 0 0 0 0 0 0 0 0 0 0 0 0 1 3 6 9 12 14 12 11 10 12 12 9 5 3 3 4 3 2 2 2 2 2 2 2 3 3 3 3 3
0 0 0 0 0 0 0 0 0 0 0 0 0 0 0 0 0 0 0 0 1 2 5 8 11 12 12 11 11 12 11 7 4 4 4 4 3 3 2 2 2 2 2 2 3 3 3 3 3
0 0 0 0 0 0 0 0 0 0 0 0 0 0 0 0 0 0 0 0 0 2 4 7 9 11 11 11 12 12 9 5 3 4 4 4 4 4 2 1 1 1 2 3 3 3 3 3 3
0 0 0 0 0 0 0 0 0 0 0 0 0 0 0 0 0 0 0 0 0 1 3 5 8 9 9 10 10 9 7 4 3 4 5 4 4 3 1 0 0 0 1 3 4 4 4 3 3
0 0 0 0 0 0 0 0 0 0 0 0 0 0 0 0 0 0 1 1 0 0 1 3 6 8 8 7 6 4 3 3 2 3 3 2 2 2 1 0 0 0 1 3 4 4 4 3 3
0 0 0 0 0 0 0 0 0 0 0 0 0 0 0 0 0 1 2 2 1 0 0 2 5 7 6 4 3 2 1 1 2 2 1 0 0 0 0 0 0 1 1 2 3 2 2 2 3
0 0 0 0 0 0 0 0 0 0 0 0 0 0 0 0 0 1 2 2 1 0 0 1 4 5 4 2 2 2 2 2 2 2 1 0 0 0 0 0 0 0 0 1 2 1 1 2 2
0 0 0 0 0 0 0 0 0 0 0 0 0 0 0 0 0 0 1 1 0 0 0 1 3 4 3 2 3 3 3 3 3 2 1 0 0 0 0 0 0 0 0 0 1 1 1 1 1
0 0 0 0 0 0 0 0 0 0 0 0 0 0 0 0 0 0 0 0 0 0 0 0 1 2 2 3 3 3 3 3 3 2 1 0 0 0 0 0 0 0 0 0 0 1 1 0 0
0 0 0 0 0 0 0 0 0 0 0 0 0 0 0 0 0 0 0 0 0 0 0 0 0 1 1 3 3 3 3 3 3 2 1 0 0 0 0 0 0 0 0 0 0 0 0 0 0
0 0 0 0 0 0 0 0 0 0 0 0 0 0 0 0 0 0 0 0 0 0 0 0 0 0 1 2 3 3 3 3 2 2 1 0 0 0 0 0 0 0 0 0 0 0 0 0 0
0 0 0 0 0 0 0 0 0 0 0 0 0 0 0 0 0 0 0 0 0 0 0 0 0 0 0 1 2 3 3 2 1 1 0 0 0 0 0 0 0 0 0 0 0 0 0 0 0
0 0 0 0 0 0 0 0 0 0 0 0 0 0 0 0 0 0 0 0 0 0 0 0 0 0 0 0 1 3 3 2 1 0 0 0 0 0 0 0 0 0 0 0 0 0 0 0 0
0 0 0 0 0 0 0 0 0 0 0 0 0 0 0 0 0 0 0 0 0 0 0 0 0 0 0 0 1 2 3 3 2 1 0 0 0 0 0 0 0 0 0 0 0 0 0 0 0
0 0 0 0 0 0 0 0 0 0 0 0 0 0 0 0 0 0 0 0 0 0 0 0 0 0 0 0 0 1 2 3 2 1 0 0 0 0 0 0 0 0 0 0 0 0 0 0 0
0 0 0 0 0 0 0 0 0 0 0 0 0 0 0 0 0 0 0 0 0 0 0 0 0 0 0 0 0 0 1 1 1 1 0 0 0 0 0 0 0 0 0 0 0 0 0 0 0
0 0 0 0 0 0 0 0 0 0 0 0 0 0 0 0 0 0 0 0 0 0 0 0 0 0 0 0 0 0 0 0 0 0 0 0 0 0 0 0 0 0 0 0 0 0 0 0 0
0 0 0 0 0 0 0 0 0 0 0 0 0 0 0 0 0 0 0 0 0 0 0 0 0 0 0 0 0 0 0 0 0 0 0 0 0 0 0 0 0 0 0 0 0 0 0 0 0
0 0 0 0 0 0 0 0 0 0 0 0 0 0 0 0 0 0 0 0 0 0 0 0 0 0 1 1 0 0 0 0 0 0 0 0 0 0 0 0 0 0 0 0 0 0 0 0 0
0 0 0 0 0 0 0 0 0 0 0 0 0 0 0 0 0 0 0 0 0 0 0 0 0 0 1 1 0 0 0 0 0 0 0 0 0 0 0 0 0 0 0 0 0 0 0 0 0
0 0 0 0 0 0 0 0 0 0 0 0 0 0 0 0 0 0 0 0 0 0 0 0 0 0 0 0 0 0 0 0 0 0 0 0 0 0 0 0 0 0 0 0 0 0 0 0 0
0 0 0 0 0 0 0 0 0 0 0 0 0 0 0 0 0 0 0 0 0 0 0 0 0 0 0 0 0 0 0 0 0 0 0 0 0 0 0 0 0 0 0 0 0 0 0 0 0
0 0 0 0 0 0 0 0 0 0 0 0 0 0 0 0 0 0 0 0 0 0 0 0 0 0 0 0 0 0 0 0 0 0 0 0 0 0 0 0 0 0 0 0 0 0 0 0 0
0 0 0 0 0 0 0 0 0 0 0 0 0 0 0 0 0 0 0 0 0 0 0 0 0 0 0 0 0 0 0 0 0 0 0 0 0 0 0 0 0 0 0 0 0 0 0 0 0
0 0 0 0 0 0 0 0 0 0 0 0 0 0 0 0 0 0 0 0 0 0 0 0 0 0 0 0 0 0 0 0 0 0 0 0 0 0 0 0 0 0 0 0 0 0 0 0 0
0 0 0 0 0 0 0 0 0 0 0 0 0 0 0 0 0 0 0 0 0 0 0 0 0 0 0 0 0 0 0 0 0 0 0 0 0 0 0 0 0 0 0 0 0 0 0 0 0
0 0 0 0 0 0 0 0 0 0 0 0 0 0 0 0 0 0 0 0 0 0 0 0 0 0 0 0 0 0 0 0 0 0 0 0 0 0 0 0 0 0 0 0 0 0 0 0 0
Wind_Speed
9 4 2 4 6 5 2 3 2 1 0 1 0 2 4 3 3 2 1 1 2 2 1 2 2 5 7 7 8 8 8 8 8 8 8 8 8 8 8 8 8 8 8 8 8 9 9 9 9
3 2 5 6 5 1 4 3 2 2 2 0 2 2 3 1 1 1 1 1 1 2 2 2 3 5 6 7 7 7 7 7 7 7 7 7 7 7 7 7 7 8 8 8 8 8 8 8 8
2 3 5 5 4 5 4 2 3 2 1 1 2 2 1 0 1 1 1 1 2 2 2 2 4 5 6 7 7 7 7 7 7 7 6 7 6 7 7 7 7 7 7 7 7 7 7 7 7
3 5 5 4 3 4 3 2 1 0 1 2 2 2 1 1 1 1 1 2 3 2 1 2 4 4 5 6 6 6 6 6 6 6 6 6 6 6 6 6 6 7 7 6 7 6 6 7 6
4 5 4 0 4 2 2 2 1 1 1 1 2 2 1 3 3 2 2 2 3 2 2 1 3 4 4 5 5 5 6 6 5 5 5 6 5 5 6 6 6 6 6 6 6 6 6 6 6
5 5 3 4 4 2 1 2 0 1 0 1 2 2 1 3 4 2 2 2 2 2 2 2 2 3 3 4 4 5 5 5 5 5 5 5 5 6 6 5 5 5 6 6 5 5 5 5 5
5 4 4 4 2 2 1 1 1 1 0 1 1 2 1 3 3 1 2 3 3 3 3 2 1 2 3 3 3 3 4 3 4 4 4 4 4 5 5 5 5 5 5 5 5 5 5 5 5
4 5 3 3 3 3 1 1 1 1 1 1 1 3 2 4 3 2 3 3 3 3 3 2 2 2 1 2 3 3 3 3 3 3 4 4 4 4 5 4 4 4 4 4 4 4 4 4 5
3 4 4 5 5 3 1 1 2 1 2 1 1 1 1 1 2 3 3 3 2 2 2 2 2 2 2 1 2 2 3 3 3 2 3 3 2 2 2 3 3 3 3 3 3 3 4 4 4
4 4 5 2 3 2 0 0 1 2 2 1 1 2 3 2 3 3 1 1 1 1 1 2 2 1 1 1 2 1 1 1 2 2 2 2 1 1 2 2 3 2 2 2 2 2 3 3 2
3 4 2 0 0 1 0 1 1 2 2 3 3 2 2 1 2 1 1 1 1 1 1 1 1 1 1 1 1 1 1 1 1 2 2 2 2 1 1 1 1 1 1 1 1 1 1 1 1
2 0 1 0 1 0 1 1 1 3 5 3 2 2 1 1 1 2 2 1 1 1 1 1 1 1 1 1 1 1 1 1 0 1 1 2 1 1 1 1 1 1 0 0 0 0 1 1 1
1 1 0 1 1 0 0 2 2 4 4 2 0 1 2 3 3 3 2 1 1 1 1 1 1 1 1 1 0 1 0 0 0 0 1 2 2 2 2 1 1 1 1 1 0 0 1 1 1
1 1 1 2 1 1 1 3 2 5 2 0 1 2 3 3 3 2 2 2 2 2 2 1 1 1 1 0 0 0 1 1 1 1 1 2 2 2 2 1 1 1 1 1 1 1 1 1 1
1 1 3 2 1 1 1 5 5 4 1 1 2 3 3 3 3 3 4 3 3 3 2 1 1 1 1 1 1 0 1 1 1 1 1 1 2 2 2 2 2 1 1 1 1 1 1 1 1
2 2 1 2 0 1 2 7 4 1 1 3 4 3 3 4 4 4 3 3 3 2 1 2 1 1 1 1 1 1 1 1 1 1 1 2 2 3 2 2 2 1 1 1 1 1 1 1 1
2 0 3 4 1 0 2 7 5 1 1 4 4 4 4 4 4 3 3 3 3 2 2 1 1 1 2 2 2 1 1 2 2 1 1 2 2 3 3 3 2 2 1 1 1 0 1 1 1
3 2 2 4 3 1 4 8 7 4 3 5 5 5 5 5 5 4 3 3 2 1 1 1 1 1 1 1 1 1 1 1 1 2 2 2 2 3 3 2 2 2 2 1 1 1 1 1 1
2 2 3 4 2 2 5 10 10 6 4 5 5 5 6 6 4 3 2 2 1 1 1 2 2 2 1 1 1 2 2 2 2 2 3 3 3 3 3 2 2 3 3 3 2 1 1 1 1
2 1 3 4 2 2 5 10 8 5 5 6 6 7 6 4 3 3 2 2 2 2 2 2 2 3 2 2 2 2 2 2 3 2 3 4 4 4 3 3 3 3 3 3 3 2 1 1 1
3 3 3 4 4 2 4 8 5 3 3 4 4 5 4 4 4 3 3 3 3 3 3 3 3 3 3 3 1 1 1 1 1 2 2 3 4 4 4 4 4 4 4 4 4 4 3 2 2
3 3 3 2 1 3 1 6 7 3 4 4 4 3 4 3 3 3 3 4 3 4 3 3 3 3 3 2 2 3 3 3 3 2 3 3 4 4 4 5 5 5 4 4 5 4 3 3 3
2 1 1 1 1 3 1 3 10 2 4 4 4 4 4 3 3 3 3 4 4 3 3 3 3 3 3 3 3 3 4 3 2 2 3 3 3 4 5 5 5 5 4 5 5 4 4 4 4
2 2 2 2 2 4 4 4 9 4 5 4 3 3 3 3 3 3 3 2 3 3 2 2 2 3 3 3 3 4 4 4 3 3 3 3 3 4 5 5 5 5 5 5 5 5 6 5 4
2 3 3 4 2 6 2 4 11 5 4 4 4 4 3 3 2 2 3 3 3 3 3 3 3 4 3 3 3 4 4 4 5 4 4 4 3 3 4 5 5 5 5 5 5 5 6 6 6
2 3 5 4 5 5 2 7 9 4 3 3 3 2 2 2 2 2 3 3 3 4 3 3 3 4 4 4 4 4 4 3 3 4 4 5 4 4 4 4 5 5 5 5 5 5 6 5 6
3 2 2 4 0 3 6 8 9 2 2 1 1 1 2 3 3 3 3 3 3 4 4 4 4 5 4 4 4 4 4 4 4 4 5 4 4 4 4 5 5 5 5 5 5 5 6 5 6
2 5 4 3 2 5 7 6 6 3 3 2 1 2 4 4 4 4 4 4 4 4 4 4 4 5 5 5 5 4 4 5 5 4 5 5 5 5 5 5 5 5 5 5 5 5 5 6 6
2 2 3 3 3 4 5 8 5 5 4 3 4 3 4 4 5 4 4 4 4 4 4 4 5 5 5 5 5 5 5 5 5 5 6 6 5 5 5 5 6 6 6 6 5 5 5 6 6
3 4 6 4 4 4 3 11 3 3 2 3 4 4 4 4 4 4 4 5 4 4 4 5 5 5 6 6 5 5 5 5 5 5 6 6 6 5 5 5 6 6 6 6 6 6 6 6 7
Wind_Direction
339 343 46 55 57 55 222 237 217 227 238 320 42 118 135 148 168 194 289 98 91 129 147 149 132 146 140 136 130 125 120 117 114 113 111 109 108 106 106 103 101 99 96 94 91 90 89 88 85
334 357 52 60 93 159 254 236 222 224 198 88 45 76 80 49 352 35 332 327 91 117 105 105 105 132 142 140 136 132 127 122 119 118 115 113 112 112 111 107 105 103 100 97 94 90 89 89 88
343 45 78 80 128 188 216 216 218 269 285 66 55 45 93 287 318 255 265 158 90 88 85 97 111 118 136 142 141 138 134 128 124 121 117 113 111 115 114 110 110 107 102 98 94 93 92 89 88
56 48 57 84 207 216 216 235 234 259 18 39 95 44 360 2 297 261 200 128 101 74 70 106 111 119 128 139 142 138 135 135 132 128 124 119 113 116 116 112 112 110 105 102 96 93 92 88 87
58 77 75 148 237 240 241 272 256 118 34 17 92 114 314 349 1 53 107 109 105 81 61 102 109 114 123 129 137 142 141 139 138 137 133 130 126 122 119 118 117 116 112 107 102 98 95 90 92
60 74 111 219 239 265 278 285 28 58 69 36 85 121 262 353 24 28 66 68 67 78 63 80 94 97 110 120 124 134 143 148 147 143 137 136 136 133 128 122 123 122 120 114 108 104 102 97 99
107 112 171 201 220 258 267 306 133 150 157 249 172 129 289 340 344 10 55 59 53 59 58 58 73 91 99 106 112 120 125 137 144 142 137 132 130 134 137 128 125 127 124 119 112 106 102 99 100
118 113 150 198 203 239 294 356 84 141 227 302 122 143 238 283 319 41 64 58 52 48 42 42 51 65 76 114 104 105 107 111 118 129 124 121 119 122 127 127 131 130 128 126 120 114 104 93 96
86 96 191 203 194 218 342 32 355 9 92 14 3 166 242 279 49 63 56 45 39 36 20 26 34 37 43 70 76 82 91 95 92 92 104 107 107 112 124 121 128 131 133 135 130 121 102 85 83
88 163 209 194 179 173 329 41 320 32 27 332 328 343 356 47 70 72 62 72 28 342 341 15 28 28 39 58 68 64 68 90 94 86 101 107 103 108 108 120 125 129 133 144 139 120 96 79 66
109 176 181 217 190 119 61 337 324 134 248 223 226 272 327 34 36 29 339 289 267 275 319 345 11 18 41 51 76 66 53 55 86 89 90 109 104 100 90 105 97 96 97 106 93 78 80 90 96
104 76 154 208 22 39 222 255 291 209 228 247 238 206 197 204 238 242 245 277 288 312 308 342 356 8 18 46 74 85 79 61 61 96 124 127 133 130 132 133 137 128 106 104 63 93 112 119 145
114 178 349 356 12 311 270 240 240 258 265 294 288 152 219 227 251 262 257 266 265 267 283 320 348 347 350 39 46 93 131 142 157 187 185 149 155 166 161 166 168 169 158 169 206 201 192 184 185
152 142 314 329 297 308 252 270 232 259 263 257 219 234 245 241 252 277 281 277 256 263 263 267 318 311 345 3 291 210 197 201 187 203 211 181 170 176 173 179 181 190 194 194 205 218 209 216 208
85 30 351 330 286 270 355 293 231 238 192 258 264 261 267 265 262 257 253 257 241 248 265 262 253 311 331 329 304 279 237 215 216 223 210 197 181 181 183 187 197 211 203 194 194 218 197 209 223
53 57 308 305 268 276 133 264 262 219 171 253 264 272 275 276 266 260 261 271 254 238 257 272 298 310 285 273 268 261 265 234 228 231 221 208 202 184 183 192 206 211 190 171 176 197 208 218 225
40 200 257 296 285 262 190 253 269 282 214 259 271 277 276 286 288 275 274 271 258 232 231 265 284 290 284 276 263 263 261 252 240 232 226 218 211 200 188 199 199 187 189 191 203 205 211 223 242
218 221 248 259 296 261 245 260 279 292 253 254 265 274 274 271 270 274 282 279 274 265 240 240 276 274 273 279 281 266 266 263 254 237 230 221 216 211 202 201 195 180 181 198 210 222 240 209 214
158 181 262 266 294 279 255 269 277 277 261 258 261 262 264 265 270 282 288 288 292 294 269 249 258 262 248 260 263 242 247 262 256 242 238 227 221 210 209 218 197 188 192 196 197 215 223 243 157
173 228 276 294 315 289 283 278 271 251 236 239 243 249 253 264 297 301 288 266 253 255 255 250 249 257 251 251 251 244 241 246 245 248 245 232 223 214 214 214 218 205 199 194 187 181 202 241 182
213 203 238 273 326 334 316 296 275 258 243 255 251 248 249 243 257 280 289 275 263 253 251 262 255 257 260 260 267 285 274 267 261 256 246 238 226 218 215 214 216 215 205 205 201 192 190 223 238
240 213 216 251 335 302 29 293 283 271 284 272 270 267 264 260 257 261 269 276 269 260 260 257 258 260 260 252 242 241 246 248 250 251 252 254 235 226 218 216 213 215 215 213 210 202 203 199 225
207 128 165 193 181 297 259 247 282 289 274 273 268 262 264 258 246 257 263 264 273 275 272 265 265 270 266 253 240 237 250 251 259 261 257 258 252 237 227 221 215 216 220 217 212 209 208 208 215
148 82 69 59 75 278 232 204 276 243 236 265 272 272 269 273 270 270 282 294 300 299 295 287 274 277 273 266 255 240 250 254 260 261 258 254 252 245 231 227 220 221 223 222 219 212 211 216 218
83 92 21 347 342 256 216 220 253 251 233 232 251 259 270 276 283 293 304 311 307 305 303 294 282 283 280 272 264 255 249 244 242 248 253 256 254 251 240 232 224 226 228 227 222 216 216 215 217
182 150 162 212 241 281 271 241 256 259 261 254 244 244 286 302 291 290 283 281 287 293 295 294 288 284 281 273 268 264 259 251 251 252 253 251 252 249 246 235 233 234 232 231 221 221 220 218 220
147 181 160 132 202 282 269 278 296 252 293 296 311 328 312 307 299 292 300 293 285 287 285 283 286 290 286 278 274 271 263 259 260 262 257 255 258 260 250 242 237 235 232 230 226 225 223 220 222
146 147 115 140 195 270 285 271 256 265 262 272 295 297 298 303 306 306 306 305 296 291 294 293 287 283 284 282 275 277 270 263 262 261 261 260 260 261 259 253 243 239 235 230 226 230 225 223 227
147 146 139 146 170 188 273 271 227 220 225 234 258 270 278 293 300 303 306 309 307 308 308 305 304 303 300 292 282 277 273 267 262 258 259 260 261 259 258 255 248 242 238 229 226 229 223 225 231
190 184 160 176 225 200 226 269 266 216 231 239 265 279 285 292 296 296 302 309 309 308 308 305 302 299 293 289 285 278 272 268 264 263 264 262 261 258 254 253 252 247 242 233 228 231 227 226 230